Location: Katzenstein
(51.7484°N, 10.2155°E)
Time: 04:56:42
(UTC+00:00)

STARLINK-1158 - Pass Details

Date: 17 February 2020
Orbit: 548 x 551 km, 53.0° (Epoch: 02 April)

Event Time Altitude Azimuth Distance (km) Brightness Sun altitude
Exits shadow 05:30:13 14° 282° (WNW) 1,615 5.3 -10.0°
Maximum altitude 05:33:50 80° 9° (N) 572 3.7 -9.4°
Drops below altitude 10° 05:38:02 10° 98° (E) 1,845 8.0 -8.8°
Sets 05:40:17 0° 99° (E) 2,739 9.8 -8.4°
